Flag for China Weather past 2 weeks in Chengdu, Sichuan, China

Now
99 °F

Partly sunny.


Feels Like: 101 °F
Forecast: 79 / 91 °F
Wind: 3 mph from North

Location: Chengdu Airport

Current Time: Aug 2, 2015 at 2:38:41 PM

Latest Report: Aug 2, 2015 at 2:00 PM


Visibility: N/A

Pressure: 29.68 "Hg

Humidity: 33%

Dew point: 64 °F

Location of ChengduLocation

Historic Weather in Chengdu — Graph

°F

Chengdu temperature yesterday

Maximum temperature yesterday: 99 °F (at 4:00 PM)
Minimum temperature yesterday: 79 °F (at 2:00 AM)
Average temperature yesterday: 88 °F

Past Weeks' High & Low Weather Summary

 TemperatureHumidityPressure
High99 °F (Jul 25, 3:00 PM)94% (Jul 21, 4:00 AM)29.83 "Hg (Jul 21, 4:00 AM)
Low70 °F (Jul 25, 4:00 AM)20% (Jul 27, 4:00 PM)29.59 "Hg (Jul 18, 4:00 PM)
Average84 °F60%29.71 "Hg
* Reported Jul 18 1:00 PM — Aug 2 1:00 PM, Chengdu, Weather by CustomWeather, © 2015

Note: Actual official high and low records may vary slightly from our data, if they occured in-between our weather recording intervals... More about our weather records

Advertising

Chengdu weather history for previous 24 hours

 ConditionsComfort  
Time TempWeatherWind HumidityBarometerVisibility
1:00 PM
Sun, Aug 2
97 °FScattered clouds.3 mph37%29.71 "HgN/A
12:00 PM95 °FScattered clouds.3 mph41%29.74 "HgN/A
11:00 AM91 °FScattered clouds.3 mph49%29.74 "HgN/A
10:00 AM91 °FSunny.1 mph49%29.74 "Hg10 mi
9:00 AM88 °FClear.No wind59%29.74 "Hg4 mi
8:00 AM84 °FClear.3 mph66%29.71 "Hg4 mi
7:00 AM79 °FSunny.3 mph89%29.71 "Hg10 mi
6:00 AM79 °FClear.1 mph84%29.71 "Hg10 mi
5:00 AM79 °FClear.No wind84%29.71 "Hg10 mi
4:00 AM81 °FClear.No wind74%29.71 "Hg10 mi
3:00 AM81 °FClear.No wind74%29.71 "Hg10 mi
2:00 AM84 °FClear.1 mph62%29.71 "Hg10 mi
1:00 AM82 °FClear.1 mph66%29.74 "Hg10 mi
12:00 AM88 °FPassing clouds.3 mph55%29.74 "HgN/A
11:00 PM
Sat, Aug 1
88 °FPassing clouds.1 mph52%29.74 "HgN/A
10:00 PM90 °FPassing clouds.6 mph46%29.71 "HgN/A
9:00 PM93 °FPassing clouds.3 mph39%29.71 "HgN/A
8:00 PM93 °FPassing clouds.8 mph39%29.68 "HgN/A
7:00 PM97 °FPassing clouds.6 mph32%29.65 "HgN/A
6:00 PM97 °FPassing clouds.8 mph34%29.62 "HgN/A
5:00 PM99 °FPassing clouds.8 mph31%29.65 "HgN/A
4:00 PM99 °FPassing clouds.3 mph33%29.65 "HgN/A
3:00 PM97 °FPassing clouds.3 mph34%29.68 "HgN/A
2:00 PM97 °FPassing clouds.3 mph37%29.71 "HgN/A
Weather by CustomWeather, © 2015

See weather overviewHow to use our weather pages